Time,TemperatureF,DewpointF,PressureIn,WindDirection,WindDirectionDegrees,WindSpeedMPH,WindSpeedGustMPH,Humidity,HourlyPrecipIn,Conditions,Clouds,dailyrainin,SoftwareType,DateUTC
2013-05-07 00:03:00,49.7,46.3,30.01,NE,52,0.0,0.0,88,0.00,,,0.00,Wunderground v.1.15,2013-05-07 05:03:00,
2013-05-07 00:10:00,49.5,46.1,30.01,NE,52,0.0,0.0,88,0.00,,,0.00,Wunderground v.1.15,2013-05-07 05:10:00,
2013-05-07 00:15:00,49.5,46.4,30.01,NE,53,0.0,0.0,89,0.00,,,0.00,Wunderground v.1.15,2013-05-07 05:15:00,
2013-05-07 00:21:00,48.9,45.5,30.01,NE,52,0.0,0.0,88,0.00,,,0.00,Wunderground v.1.15,2013-05-07 05:21:00,
2013-05-07 00:27:00,48.6,45.2,30.01,NE,52,0.0,0.0,88,0.00,,,0.00,Wunderground v.1.15,2013-05-07 05:27:00,
2013-05-07 00:33:00,48.6,46.0,30.01,NE,52,0.0,0.0,89,0.00,,,0.00,weatherlink.com 1.10,2013-05-07 05:33:00,
2013-05-07 00:38:00,48.7,45.6,30.01,NE,53,0.0,0.0,89,0.00,,,0.00,Wunderground v.1.15,2013-05-07 05:38:00,
2013-05-07 00:43:00,48.7,45.6,30.01,NE,52,0.0,0.0,89,0.00,,,0.00,Wunderground v.1.15,2013-05-07 05:43:00,
2013-05-07 00:49:00,48.8,46.0,30.01,NE,53,0.0,0.0,90,0.00,,,0.00,weatherlink.com 1.10,2013-05-07 05:49:00,
2013-05-07 00:55:00,49.1,46.3,30.01,NE,52,0.0,0.0,90,0.00,,,0.00,Wunderground v.1.15,2013-05-07 05:55:00,
2013-05-07 01:01:00,48.9,46.1,30.01,NE,53,0.0,0.0,90,0.00,,,0.00,Wunderground v.1.15,2013-05-07 06:01:00,
2013-05-07 01:06:00,48.7,45.9,30.01,NE,53,0.0,0.0,90,0.00,,,0.00,Wunderground v.1.15,2013-05-07 06:06:00,
2013-05-07 01:12:00,48.2,45.4,30.01,NE,53,0.0,0.0,90,0.00,,,0.00,Wunderground v.1.15,2013-05-07 06:12:00,
2013-05-07 01:19:00,48.0,45.0,30.01,NE,53,0.0,0.0,90,0.00,,,0.00,weatherlink.com 1.10,2013-05-07 06:19:00,
2013-05-07 01:25:00,47.5,44.7,30.01,NE,53,0.0,0.0,90,0.00,,,0.00,Wunderground v.1.15,2013-05-07 06:25:00,
2013-05-07 01:30:00,47.4,44.6,30.01,NE,53,0.0,0.0,90,0.00,,,0.00,Wunderground v.1.15,2013-05-07 06:30:00,
2013-05-07 01:35:00,47.1,44.3,30.01,NE,53,0.0,0.0,90,0.00,,,0.00,Wunderground v.1.15,2013-05-07 06:35:00,
2013-05-07 01:41:00,46.9,44.1,30.01,NE,53,0.0,0.0,90,0.00,,,0.00,Wunderground v.1.15,2013-05-07 06:41:00,
2013-05-07 01:46:00,47.0,44.5,30.01,NE,52,0.0,0.0,91,0.00,,,0.00,Wunderground v.1.15,2013-05-07 06:46:00,
2013-05-07 01:52:00,46.7,44.2,30.01,NE,52,0.0,0.0,91,0.00,,,0.00,Wunderground v.1.15,2013-05-07 06:52:00,
2013-05-07 01:58:00,46.5,44.0,30.01,NE,53,0.0,2.0,91,0.00,,,0.00,Wunderground v.1.15,2013-05-07 06:58:00,
2013-05-07 02:03:00,47.0,44.8,30.01,NE,52,1.0,2.0,92,0.00,,,0.00,Wunderground v.1.15,2013-05-07 07:03:00,
2013-05-07 02:08:00,47.9,45.7,30.00,NE,53,2.0,2.0,92,0.00,,,0.00,Wunderground v.1.15,2013-05-07 07:08:00,
2013-05-07 02:14:00,47.1,44.9,30.00,NE,52,1.0,2.0,92,0.00,,,0.00,Wunderground v.1.15,2013-05-07 07:14:00,
2013-05-07 02:19:00,46.7,44.2,30.00,NE,53,1.0,2.0,91,0.00,,,0.00,Wunderground v.1.15,2013-05-07 07:19:00,
2013-05-07 02:25:00,46.2,43.7,30.00,NE,53,1.0,2.0,91,0.00,,,0.00,Wunderground v.1.15,2013-05-07 07:25:00,
2013-05-07 02:30:00,46.0,43.5,30.00,NE,53,0.0,0.0,91,0.00,,,0.00,Wunderground v.1.15,2013-05-07 07:30:00,
2013-05-07 02:36:00,46.0,43.8,30.00,NE,53,0.0,0.0,92,0.00,,,0.00,Wunderground v.1.15,2013-05-07 07:36:00,
2013-05-07 02:42:00,45.6,43.1,30.00,NE,53,0.0,1.0,91,0.00,,,0.00,Wunderground v.1.15,2013-05-07 07:42:00,
2013-05-07 02:47:00,45.9,43.7,30.00,NE,52,1.0,1.0,92,0.00,,,0.00,Wunderground v.1.15,2013-05-07 07:47:00,
2013-05-07 02:53:00,46.5,44.3,30.00,NE,53,1.0,1.0,92,0.00,,,0.00,Wunderground v.1.15,2013-05-07 07:53:00,
2013-05-07 02:59:00,46.9,45.0,30.00,NE,52,0.0,1.0,93,0.00,,,0.00,Wunderground v.1.15,2013-05-07 07:59:00,
2013-05-07 03:05:00,47.4,45.2,30.00,NE,53,1.0,2.0,92,0.00,,,0.00,Wunderground v.1.15,2013-05-07 08:05:00,
2013-05-07 03:10:00,48.3,46.4,30.00,NE,53,2.0,2.0,93,0.00,,,0.00,Wunderground v.1.15,2013-05-07 08:10:00,
2013-05-07 03:16:00,49.2,47.3,30.00,NE,53,2.0,3.0,93,0.00,,,0.00,Wunderground v.1.15,2013-05-07 08:16:00,
2013-05-07 03:21:00,49.6,47.7,30.00,NE,50,2.0,3.0,93,0.00,,,0.00,Wunderground v.1.15,2013-05-07 08:21:00,
2013-05-07 03:27:00,50.1,48.2,30.00,NNE,17,2.0,3.0,93,0.00,,,0.00,Wunderground v.1.15,2013-05-07 08:27:00,
2013-05-07 03:32:00,50.3,48.4,30.00,NNE,17,2.0,2.0,93,0.00,,,0.00,Wunderground v.1.15,2013-05-07 08:32:00,
2013-05-07 03:38:00,50.9,48.9,30.00,NNE,17,1.0,2.0,93,0.00,,,0.00,Wunderground v.1.15,2013-05-07 08:38:00,
2013-05-07 03:44:00,51.2,49.2,30.00,NNE,17,0.0,1.0,93,0.00,,,0.00,Wunderground v.1.15,2013-05-07 08:44:00,
2013-05-07 03:49:00,50.3,48.0,30.00,NNE,17,2.0,3.0,91,0.00,,,0.00,weatherlink.com 1.10,2013-05-07 08:49:00,
2013-05-07 03:55:00,49.7,47.2,30.00,NNE,17,1.0,2.0,91,0.00,,,0.00,Wunderground v.1.15,2013-05-07 08:55:00,
2013-05-07 04:02:00,49.7,47.2,30.00,NNE,17,1.0,1.0,91,0.00,,,0.00,Wunderground v.1.15,2013-05-07 09:02:00,
2013-05-07 04:08:00,49.0,46.2,30.00,NNE,17,0.0,1.0,90,0.00,,,0.00,Wunderground v.1.15,2013-05-07 09:08:00,
2013-05-07 04:14:00,48.5,45.7,29.99,NNE,17,0.0,0.0,90,0.00,,,0.00,Wunderground v.1.15,2013-05-07 09:14:00,
2013-05-07 04:20:00,47.8,45.0,29.99,NNE,17,0.0,0.0,90,0.00,,,0.00,weatherlink.com 1.10,2013-05-07 09:20:00,
2013-05-07 04:25:00,47.7,44.9,29.99,NNE,17,0.0,0.0,90,0.00,,,0.00,Wunderground v.1.15,2013-05-07 09:25:00,
2013-05-07 04:31:00,46.9,44.1,29.99,NNE,17,0.0,0.0,90,0.00,,,0.00,Wunderground v.1.15,2013-05-07 09:31:00,
2013-05-07 04:36:00,46.6,43.8,30.00,NNE,17,0.0,0.0,90,0.00,,,0.00,Wunderground v.1.15,2013-05-07 09:36:00,
2013-05-07 04:42:00,46.2,43.4,30.00,NNE,17,0.0,0.0,90,0.00,,,0.00,Wunderground v.1.15,2013-05-07 09:42:00,
2013-05-07 04:47:00,46.0,43.5,30.00,NNE,17,0.0,0.0,91,0.00,,,0.00,Wunderground v.1.15,2013-05-07 09:47:00,
2013-05-07 04:53:00,46.1,43.6,30.00,NNE,17,0.0,0.0,91,0.00,,,0.00,Wunderground v.1.15,2013-05-07 09:53:00,
2013-05-07 04:58:00,46.1,43.6,30.00,NNE,17,0.0,0.0,91,0.00,,,0.00,Wunderground v.1.15,2013-05-07 09:58:00,
2013-05-07 05:04:00,46.0,44.0,30.00,NNE,17,0.0,0.0,91,0.00,,,0.00,weatherlink.com 1.10,2013-05-07 10:04:00,
2013-05-07 05:09:00,45.5,43.0,30.00,NNE,17,0.0,0.0,91,0.00,,,0.00,Wunderground v.1.15,2013-05-07 10:09:00,
2013-05-07 05:17:00,45.2,42.7,30.00,NNE,17,0.0,0.0,91,0.00,,,0.00,Wunderground v.1.15,2013-05-07 10:17:00,
2013-05-07 05:23:00,45.3,43.1,30.00,NNE,17,0.0,0.0,92,0.00,,,0.00,Wunderground v.1.15,2013-05-07 10:23:00,
2013-05-07 05:28:00,44.9,42.4,30.00,NNE,17,0.0,0.0,91,0.00,,,0.00,Wunderground v.1.15,2013-05-07 10:28:00,
2013-05-07 05:34:00,44.7,42.2,30.00,NNE,17,0.0,0.0,91,0.00,,,0.00,Wunderground v.1.15,2013-05-07 10:34:00,
2013-05-07 05:40:00,45.1,42.9,30.00,NNE,17,0.0,0.0,92,0.00,,,0.00,Wunderground v.1.15,2013-05-07 10:40:00,
2013-05-07 05:45:00,45.4,43.2,30.00,NNE,17,0.0,0.0,92,0.00,,,0.00,Wunderground v.1.15,2013-05-07 10:45:00,
2013-05-07 05:51:00,44.7,42.5,30.00,NNE,17,0.0,0.0,92,0.00,,,0.00,Wunderground v.1.15,2013-05-07 10:51:00,
2013-05-07 05:57:00,44.0,41.8,30.00,NNE,17,0.0,0.0,92,0.00,,,0.00,Wunderground v.1.15,2013-05-07 10:57:00,
2013-05-07 06:02:00,43.6,41.4,30.00,NNE,17,0.0,0.0,92,0.00,,,0.00,Wunderground v.1.15,2013-05-07 11:02:00,
2013-05-07 06:08:00,43.6,41.4,30.00,NNE,17,0.0,0.0,92,0.00,,,0.00,Wunderground v.1.15,2013-05-07 11:08:00,
2013-05-07 06:14:00,43.6,41.4,30.00,NNE,17,0.0,0.0,92,0.00,,,0.00,Wunderground v.1.15,2013-05-07 11:14:00,
2013-05-07 06:20:00,43.3,41.0,30.00,NNE,17,0.0,0.0,92,0.00,,,0.00,weatherlink.com 1.10,2013-05-07 11:20:00,
2013-05-07 06:25:00,43.3,41.1,30.00,NNE,17,0.0,0.0,92,0.00,,,0.00,Wunderground v.1.15,2013-05-07 11:25:00,
2013-05-07 06:31:00,43.0,40.8,30.00,NNE,17,0.0,0.0,92,0.00,,,0.00,Wunderground v.1.15,2013-05-07 11:31:00,
2013-05-07 06:36:00,43.0,40.8,30.00,NNE,17,0.0,0.0,92,0.00,,,0.00,Wunderground v.1.15,2013-05-07 11:36:00,
2013-05-07 06:42:00,43.5,41.6,30.01,NNE,17,0.0,0.0,93,0.00,,,0.00,Wunderground v.1.15,2013-05-07 11:42:00,
2013-05-07 06:47:00,43.1,40.9,30.01,NNE,17,0.0,0.0,92,0.00,,,0.00,Wunderground v.1.15,2013-05-07 11:47:00,
2013-05-07 06:53:00,42.5,40.3,30.01,NNE,17,0.0,0.0,92,0.00,,,0.00,Wunderground v.1.15,2013-05-07 11:53:00,
2013-05-07 06:59:00,42.4,40.2,30.01,NNE,17,0.0,0.0,92,0.00,,,0.00,Wunderground v.1.15,2013-05-07 11:59:00,
2013-05-07 07:04:00,42.7,40.5,30.02,NNE,17,0.0,0.0,92,0.00,,,0.00,Wunderground v.1.15,2013-05-07 12:04:00,
2013-05-07 07:10:00,43.7,41.8,30.02,NNE,17,0.0,0.0,93,0.00,,,0.00,Wunderground v.1.15,2013-05-07 12:10:00,
2013-05-07 07:20:00,44.2,42.0,30.02,NNE,17,0.0,0.0,93,0.00,,,0.00,weatherlink.com 1.10,2013-05-07 12:20:00,
2013-05-07 07:25:00,45.1,43.2,30.02,NNE,17,0.0,0.0,93,0.00,,,0.00,Wunderground v.1.15,2013-05-07 12:25:00,
2013-05-07 07:31:00,46.1,44.5,30.03,NNE,17,0.0,0.0,94,0.00,,,0.00,Wunderground v.1.15,2013-05-07 12:31:00,
2013-05-07 07:37:00,47.0,45.4,30.03,NNE,17,0.0,0.0,94,0.00,,,0.00,Wunderground v.1.15,2013-05-07 12:37:00,
2013-05-07 07:42:00,47.5,45.9,30.03,NNE,17,0.0,0.0,94,0.00,,,0.00,Wunderground v.1.15,2013-05-07 12:42:00,
2013-05-07 07:48:00,47.9,46.3,30.03,NNE,17,0.0,0.0,94,0.00,,,0.00,Wunderground v.1.15,2013-05-07 12:48:00,
2013-05-07 07:54:00,48.6,47.0,30.03,NNE,17,0.0,0.0,94,0.00,,,0.00,Wunderground v.1.15,2013-05-07 12:54:00,
2013-05-07 07:59:00,49.9,48.2,30.03,NNE,17,0.0,0.0,94,0.00,,,0.00,Wunderground v.1.15,2013-05-07 12:59:00,
2013-05-07 08:05:00,50.8,49.1,30.03,NNE,17,0.0,0.0,94,0.00,,,0.00,Wunderground v.1.15,2013-05-07 13:05:00,
2013-05-07 08:11:00,51.4,49.7,30.03,NNE,17,0.0,0.0,94,0.00,,,0.00,Wunderground v.1.15,2013-05-07 13:11:00,
2013-05-07 08:16:00,52.3,50.6,30.03,NNE,17,0.0,0.0,94,0.00,,,0.00,Wunderground v.1.15,2013-05-07 13:16:00,
2013-05-07 08:22:00,53.3,51.9,30.03,NNE,17,0.0,0.0,95,0.00,,,0.00,Wunderground v.1.15,2013-05-07 13:22:00,
2013-05-07 08:28:00,54.3,52.6,30.03,NNE,23,0.0,0.0,94,0.00,,,0.00,Wunderground v.1.15,2013-05-07 13:28:00,
2013-05-07 08:33:00,54.8,53.1,30.03,NNE,31,0.0,0.0,94,0.00,,,0.00,Wunderground v.1.15,2013-05-07 13:33:00,
2013-05-07 08:39:00,55.6,53.9,30.03,NNE,31,0.0,0.0,94,0.00,,,0.00,Wunderground v.1.15,2013-05-07 13:39:00,
2013-05-07 08:45:00,56.4,54.7,30.03,NNE,30,0.0,0.0,94,0.00,,,0.00,Wunderground v.1.15,2013-05-07 13:45:00,
2013-05-07 08:51:00,57.3,56.0,30.03,NNE,30,0.0,0.0,94,0.00,,,0.00,weatherlink.com 1.10,2013-05-07 13:51:00,
2013-05-07 08:56:00,58.0,56.0,30.03,NNE,31,0.0,0.0,93,0.00,,,0.00,Wunderground v.1.15,2013-05-07 13:56:00,
2013-05-07 09:02:00,58.7,55.8,30.03,NNE,31,0.0,0.0,90,0.00,,,0.00,Wunderground v.1.15,2013-05-07 14:02:00,
2013-05-07 09:08:00,59.0,55.1,30.03,NNE,31,0.0,0.0,87,0.00,,,0.00,Wunderground v.1.15,2013-05-07 14:08:00,
2013-05-07 09:14:00,59.6,55.1,30.03,NNE,30,0.0,0.0,85,0.00,,,0.00,Wunderground v.1.15,2013-05-07 14:14:00,
2013-05-07 09:20:00,59.8,55.3,30.03,NNE,30,0.0,0.0,85,0.00,,,0.00,Wunderground v.1.15,2013-05-07 14:20:00,
2013-05-07 09:26:00,61.4,55.2,30.03,WSW,238,0.0,0.0,80,0.00,,,0.00,Wunderground v.1.15,2013-05-07 14:26:00,
2013-05-07 09:31:00,62.2,55.6,30.03,SSE,163,0.0,0.0,79,0.00,,,0.00,Wunderground v.1.15,2013-05-07 14:31:00,
2013-05-07 09:37:00,62.8,56.0,30.03,East,101,0.0,0.0,77,0.00,,,0.00,weatherlink.com 1.10,2013-05-07 14:37:00,
2013-05-07 09:43:00,63.0,55.7,30.02,East,101,0.0,0.0,77,0.00,,,0.00,Wunderground v.1.15,2013-05-07 14:43:00,
2013-05-07 09:49:00,63.3,55.2,30.02,East,101,0.0,0.0,75,0.00,,,0.00,Wunderground v.1.15,2013-05-07 14:49:00,
2013-05-07 09:55:00,63.6,55.5,30.02,East,101,0.0,0.0,75,0.00,,,0.00,Wunderground v.1.15,2013-05-07 14:55:00,
2013-05-07 10:00:00,64.0,55.5,30.02,East,79,0.0,0.0,74,0.00,,,0.00,Wunderground v.1.15,2013-05-07 15:00:00,
2013-05-07 10:06:00,64.3,55.0,30.02,East,87,0.0,2.0,72,0.00,,,0.00,weatherlink.com 1.10,2013-05-07 15:06:00,
2013-05-07 10:12:00,64.0,55.2,30.02,East,96,1.0,5.0,73,0.00,,,0.00,Wunderground v.1.15,2013-05-07 15:12:00,
2013-05-07 10:17:00,64.2,54.6,30.02,ESE,115,3.0,7.0,71,0.00,,,0.00,Wunderground v.1.15,2013-05-07 15:17:00,
2013-05-07 10:24:00,64.8,55.6,30.02,ESE,119,4.0,7.0,72,0.00,,,0.00,Wunderground v.1.15,2013-05-07 15:24:00,
2013-05-07 10:31:00,65.6,55.5,30.02,SSE,157,2.0,2.0,70,0.00,,,0.00,Wunderground v.1.15,2013-05-07 15:31:00,
2013-05-07 10:36:00,66.2,55.3,30.01,SE,146,1.0,2.0,68,0.00,,,0.00,Wunderground v.1.15,2013-05-07 15:36:00,
2013-05-07 10:42:00,65.8,54.9,30.01,SE,133,2.0,4.0,68,0.00,,,0.00,Wunderground v.1.15,2013-05-07 15:42:00,
2013-05-07 10:48:00,65.7,54.8,30.01,SE,127,2.0,6.0,68,0.00,,,0.00,Wunderground v.1.15,2013-05-07 15:48:00,
2013-05-07 10:54:00,66.4,55.1,30.01,SE,134,3.0,7.0,67,0.00,,,0.00,Wunderground v.1.15,2013-05-07 15:54:00,
2013-05-07 11:00:00,66.8,54.7,30.01,SE,129,4.0,4.0,65,0.00,,,0.00,Wunderground v.1.15,2013-05-07 16:00:00,
2013-05-07 11:06:00,67.0,54.0,30.01,SE,129,5.0,8.0,63,0.00,,,0.00,weatherlink.com 1.10,2013-05-07 16:06:00,
2013-05-07 11:11:00,66.9,53.9,30.01,SE,135,5.0,5.0,63,0.00,,,0.00,Wunderground v.1.15,2013-05-07 16:11:00,
2013-05-07 11:18:00,66.6,54.9,30.01,SE,140,3.0,5.0,66,0.00,,,0.00,Wunderground v.1.15,2013-05-07 16:18:00,
2013-05-07 11:24:00,67.4,54.8,30.00,SE,142,2.0,4.0,64,0.00,,,0.00,Wunderground v.1.15,2013-05-07 16:24:00,
2013-05-07 11:29:00,67.8,54.7,30.00,South,179,4.0,8.0,63,0.00,,,0.00,Wunderground v.1.15,2013-05-07 16:29:00,
2013-05-07 11:35:00,67.4,54.4,30.00,ESE,119,4.0,6.0,63,0.00,,,0.00,Wunderground v.1.15,2013-05-07 16:35:00,
2013-05-07 11:41:00,68.0,54.9,30.00,South,172,4.0,8.0,63,0.00,,,0.00,Wunderground v.1.15,2013-05-07 16:41:00,
2013-05-07 11:47:00,69.4,54.9,30.00,SE,128,6.0,8.0,60,0.00,,,0.00,Wunderground v.1.15,2013-05-07 16:47:00,
2013-05-07 11:53:00,69.6,54.2,30.00,SSW,207,5.0,10.0,58,0.00,,,0.00,Wunderground v.1.15,2013-05-07 16:53:00,
2013-05-07 11:59:00,69.2,52.8,30.00,South,181,6.0,10.0,56,0.00,,,0.00,Wunderground v.1.15,2013-05-07 16:59:00,
2013-05-07 12:05:00,68.6,53.2,30.00,SSW,197,5.0,7.0,58,0.00,,,0.00,Wunderground v.1.15,2013-05-07 17:05:00,
2013-05-07 12:10:00,68.5,54.1,29.99,SW,227,5.0,11.0,60,0.00,,,0.00,Wunderground v.1.15,2013-05-07 17:10:00,
2013-05-07 12:16:00,69.2,53.8,29.99,SSW,200,7.0,11.0,58,0.00,,,0.00,Wunderground v.1.15,2013-05-07 17:16:00,
2013-05-07 12:22:00,69.5,53.0,29.99,South,186,7.0,10.0,56,0.00,,,0.00,weatherlink.com 1.10,2013-05-07 17:22:00,
2013-05-07 12:27:00,69.7,53.3,29.99,WSW,241,4.0,8.0,56,0.00,,,0.00,Wunderground v.1.15,2013-05-07 17:27:00,
2013-05-07 12:33:00,70.3,52.4,29.99,ESE,119,4.0,8.0,53,0.00,,,0.00,Wunderground v.1.15,2013-05-07 17:33:00,
2013-05-07 12:39:00,69.8,52.9,29.99,South,169,5.0,8.0,55,0.00,,,0.00,Wunderground v.1.15,2013-05-07 17:39:00,
2013-05-07 12:45:00,69.9,51.5,29.98,SSW,210,6.0,9.0,52,0.00,,,0.00,Wunderground v.1.15,2013-05-07 17:45:00,
2013-05-07 12:51:00,69.7,50.8,29.98,SE,138,7.0,7.0,51,0.00,,,0.00,Wunderground v.1.15,2013-05-07 17:51:00,
2013-05-07 12:57:00,69.8,52.4,29.98,SSW,195,7.0,13.0,54,0.00,,,0.00,Wunderground v.1.15,2013-05-07 17:57:00,
2013-05-07 13:03:00,70.3,51.8,29.97,SE,137,7.0,7.0,52,0.00,,,0.00,Wunderground v.1.15,2013-05-07 18:03:00,
2013-05-07 13:09:00,70.3,52.4,29.98,SW,221,6.0,9.0,53,0.00,,,0.00,Wunderground v.1.15,2013-05-07 18:09:00,
2013-05-07 13:15:00,70.9,52.9,29.97,South,183,8.0,12.0,53,0.00,,,0.00,Wunderground v.1.15,2013-05-07 18:15:00,
2013-05-07 13:21:00,70.7,52.7,29.98,SW,232,7.0,11.0,53,0.00,,,0.00,Wunderground v.1.15,2013-05-07 18:21:00,
2013-05-07 13:27:00,71.2,52.7,29.97,SW,221,8.0,11.0,52,0.00,,,0.00,Wunderground v.1.15,2013-05-07 18:27:00,
2013-05-07 13:33:00,71.3,52.8,29.97,ESE,119,6.0,8.0,52,0.00,,,0.00,Wunderground v.1.15,2013-05-07 18:33:00,
2013-05-07 13:39:00,72.1,53.0,29.96,SE,129,7.0,13.0,51,0.00,,,0.00,Wunderground v.1.15,2013-05-07 18:39:00,
2013-05-07 13:45:00,72.5,53.3,29.96,South,187,8.0,11.0,51,0.00,,,0.00,Wunderground v.1.15,2013-05-07 18:45:00,
2013-05-07 13:50:00,73.1,52.2,29.96,SW,219,8.0,8.0,48,0.00,,,0.00,Wunderground v.1.15,2013-05-07 18:50:00,
2013-05-07 13:58:00,72.2,51.4,29.96,South,183,7.0,11.0,48,0.00,,,0.00,Wunderground v.1.15,2013-05-07 18:58:00,
2013-05-07 14:03:00,71.4,52.3,29.96,SSE,164,6.0,10.0,51,0.00,,,0.00,Wunderground v.1.15,2013-05-07 19:03:00,
2013-05-07 14:08:00,72.1,52.4,29.96,SSE,165,7.0,14.0,50,0.00,,,0.00,Wunderground v.1.15,2013-05-07 19:08:00,
2013-05-07 14:14:00,73.0,52.7,29.95,SSW,196,7.0,8.0,49,0.00,,,0.00,Wunderground v.1.15,2013-05-07 19:14:00,
2013-05-07 14:20:00,73.1,52.8,29.95,South,190,6.0,6.0,49,0.00,,,0.00,Wunderground v.1.15,2013-05-07 19:20:00,
2013-05-07 14:26:00,74.2,52.7,29.95,SSW,198,4.0,12.0,47,0.00,,,0.00,Wunderground v.1.15,2013-05-07 19:26:00,
2013-05-07 14:32:00,74.0,52.5,29.94,SW,227,7.0,7.0,47,0.00,,,0.00,Wunderground v.1.15,2013-05-07 19:32:00,
2013-05-07 14:37:00,73.0,52.7,29.94,South,174,7.0,11.0,49,0.00,,,0.00,Wunderground v.1.15,2013-05-07 19:37:00,
2013-05-07 14:43:00,72.3,53.2,29.94,SSW,194,7.0,11.0,51,0.00,,,0.00,Wunderground v.1.15,2013-05-07 19:43:00,
2013-05-07 14:49:00,72.6,52.9,29.94,SE,132,7.0,11.0,50,0.00,,,0.00,Wunderground v.1.15,2013-05-07 19:49:00,
2013-05-07 14:55:00,73.7,52.2,29.94,SE,133,7.0,8.0,47,0.00,,,0.00,Wunderground v.1.15,2013-05-07 19:55:00,
2013-05-07 15:01:00,72.5,51.7,29.94,South,169,7.0,7.0,48,0.00,,,0.00,Wunderground v.1.15,2013-05-07 20:01:00,
2013-05-07 15:07:00,72.4,53.0,29.93,SSW,199,7.0,11.0,50,0.00,,,0.00,weatherlink.com 1.10,2013-05-07 20:07:00,
2013-05-07 15:12:00,72.8,52.5,29.93,South,186,6.0,13.0,49,0.00,,,0.00,Wunderground v.1.15,2013-05-07 20:12:00,
2013-05-07 15:18:00,73.1,53.4,29.93,SSW,205,8.0,13.0,50,0.00,,,0.00,Wunderground v.1.15,2013-05-07 20:18:00,
2013-05-07 15:23:00,73.6,53.3,29.93,SSW,213,8.0,13.0,49,0.00,,,0.00,Wunderground v.1.15,2013-05-07 20:23:00,
2013-05-07 15:29:00,73.7,53.3,29.93,SW,230,5.0,13.0,49,0.00,,,0.00,Wunderground v.1.15,2013-05-07 20:29:00,
2013-05-07 15:35:00,73.8,53.4,29.92,SE,142,4.0,9.0,49,0.00,,,0.00,Wunderground v.1.15,2013-05-07 20:35:00,
2013-05-07 15:41:00,74.7,53.1,29.92,SSW,194,8.0,9.0,47,0.00,,,0.00,Wunderground v.1.15,2013-05-07 20:41:00,
2013-05-07 15:47:00,73.7,53.9,29.92,SSW,205,7.0,9.0,50,0.00,,,0.00,Wunderground v.1.15,2013-05-07 20:47:00,
2013-05-07 15:53:00,73.9,53.0,29.91,SSE,148,7.0,11.0,48,0.00,,,0.00,weatherlink.com 1.10,2013-05-07 20:53:00,
2013-05-07 15:59:00,73.3,53.0,29.91,SE,128,6.0,10.0,49,0.00,,,0.00,Wunderground v.1.15,2013-05-07 20:59:00,
2013-05-07 16:04:00,72.6,52.9,29.91,SSE,167,6.0,7.0,50,0.00,,,0.00,Wunderground v.1.15,2013-05-07 21:04:00,
2013-05-07 16:09:00,72.2,53.0,29.91,SSW,194,8.0,12.0,51,0.00,,,0.00,weatherlink.com 1.10,2013-05-07 21:09:00,
2013-05-07 16:14:00,71.9,52.8,29.91,SSW,198,7.0,9.0,51,0.00,,,0.00,Wunderground v.1.15,2013-05-07 21:14:00,
2013-05-07 16:20:00,71.7,53.1,29.91,SSW,199,5.0,5.0,52,0.00,,,0.00,Wunderground v.1.15,2013-05-07 21:20:00,
2013-05-07 16:26:00,71.7,53.1,29.91,SSW,192,5.0,7.0,52,0.00,,,0.00,Wunderground v.1.15,2013-05-07 21:26:00,
2013-05-07 16:31:00,71.6,53.0,29.90,South,188,6.0,9.0,52,0.00,,,0.00,Wunderground v.1.15,2013-05-07 21:31:00,
2013-05-07 16:37:00,71.3,52.8,29.90,South,187,6.0,9.0,52,0.00,,,0.00,Wunderground v.1.15,2013-05-07 21:37:00,
2013-05-07 16:43:00,71.3,53.3,29.90,SSW,198,5.0,7.0,53,0.00,,,0.00,Wunderground v.1.15,2013-05-07 21:43:00,
2013-05-07 16:49:00,71.3,53.3,29.90,SSW,205,5.0,7.0,53,0.00,,,0.00,Wunderground v.1.15,2013-05-07 21:49:00,
2013-05-07 16:54:00,71.2,53.0,29.90,South,173,4.0,8.0,52,0.00,,,0.00,weatherlink.com 1.10,2013-05-07 21:54:00,
2013-05-07 17:00:00,71.2,53.2,29.90,SW,218,5.0,6.0,53,0.00,,,0.00,Wunderground v.1.15,2013-05-07 22:00:00,
2013-05-07 17:06:00,71.3,53.3,29.90,SSW,196,4.0,6.0,53,0.00,,,0.00,Wunderground v.1.15,2013-05-07 22:06:00,
2013-05-07 17:12:00,71.6,53.0,29.90,SSW,194,5.0,6.0,52,0.00,,,0.00,Wunderground v.1.15,2013-05-07 22:12:00,
2013-05-07 17:17:00,71.6,52.5,29.90,SSW,194,5.0,7.0,51,0.00,,,0.00,Wunderground v.1.15,2013-05-07 22:17:00,
2013-05-07 17:23:00,71.5,53.0,29.89,SSW,200,6.0,8.0,52,0.00,,,0.00,weatherlink.com 1.10,2013-05-07 22:23:00,
2013-05-07 17:28:00,71.4,52.9,29.89,SSE,164,5.0,7.0,52,0.00,,,0.00,Wunderground v.1.15,2013-05-07 22:28:00,